NSZ3859 EGPH-EKBI

Flight info

Callsign NSZ3859
Flight time 1h 17m
Altitude 37000
Route GRICE P600 ASNUD DCT ELSAN DCT VAXIT DCT GELBA
Aircraft A320/M-SDE3FGHIRWY/LB1

Departure

Time 2026-04-25 22:35
Airport Edinburgh Airport (EGPH)

Arrival

Time 2026-04-25 23:52
Airport Billund Airport (EKBI)
Time Latitude Longitude Altitude Speed Heading
2026-04-25 22:08 55.94751 -3.36618 117 ft 0 kts 89°
2026-04-25 22:23 55.94751 -3.36635 112 ft 4 kts 90°
2026-04-25 22:24 55.94753 -3.36683 115 ft 4 kts 95°
2026-04-25 22:24 55.94754 -3.36722 112 ft 4 kts 65°
2026-04-25 22:24 55.94738 -3.36741 112 ft 4 kts 357°
2026-04-25 22:24 55.94711 -3.36737 116 ft 4 kts 357°
2026-04-25 22:25 55.94706 -3.36736 113 ft 0 kts 359°
2026-04-25 22:28 55.94708 -3.36736 113 ft 1 kts 359°
2026-04-25 22:28 55.94726 -3.36737 113 ft 4 kts 359°
2026-04-25 22:29 55.94759 -3.36755 112 ft 6 kts 330°
2026-04-25 22:29 55.94809 -3.36777 116 ft 9 kts 357°
2026-04-25 22:29 55.94878 -3.36787 116 ft 11 kts 340°
2026-04-25 22:30 55.94883 -3.37024 115 ft 14 kts 239°
2026-04-25 22:30 55.94829 -3.37182 113 ft 16 kts 239°
2026-04-25 22:30 55.94767 -3.37365 113 ft 18 kts 239°
2026-04-25 22:30 55.94726 -3.37487 111 ft 17 kts 239°
2026-04-25 22:31 55.94636 -3.37751 115 ft 20 kts 239°
2026-04-25 22:31 55.94561 -3.37972 111 ft 17 kts 238°
2026-04-25 22:31 55.94497 -3.38163 114 ft 19 kts 239°
2026-04-25 22:31 55.94441 -3.38327 113 ft 16 kts 238°
2026-04-25 22:32 55.94383 -3.38498 115 ft 16 kts 239°
2026-04-25 22:32 55.94329 -3.38659 116 ft 12 kts 239°
2026-04-25 22:32 55.94286 -3.38787 116 ft 11 kts 240°
2026-04-25 22:32 55.94312 -3.38893 113 ft 11 kts 326°
2026-04-25 22:33 55.94388 -3.38968 114 ft 13 kts 347°
2026-04-25 22:33 55.94454 -3.38857 114 ft 15 kts 57°
2026-04-25 22:33 55.94496 -3.38735 113 ft 0 kts 58°
2026-04-25 22:33 55.94496 -3.38736 113 ft 0 kts 58°
2026-04-25 22:34 55.94536 -3.38619 112 ft 41 kts 59°
2026-04-25 22:34 55.94799 -3.37841 112 ft 102 kts 59°
2026-04-25 22:34 55.95247 -3.36515 112 ft 145 kts 58°
2026-04-25 22:34 55.95792 -3.34953 601 ft 147 kts 59°
2026-04-25 22:35 55.96479 -3.33564 1145 ft 154 kts 40°
2026-04-25 22:35 55.97364 -3.32447 1569 ft 160 kts 42°
2026-04-25 22:35 55.98245 -3.31040 1749 ft 178 kts 46°
2026-04-25 22:35 55.99165 -3.29488 2071 ft 185 kts 46°
2026-04-25 22:36 56.00217 -3.28021 2352 ft 201 kts 31°
2026-04-25 22:36 56.01558 -3.27177 2796 ft 209 kts 13°
2026-04-25 22:36 56.03076 -3.27116 3039 ft 232 kts 351°
2026-04-25 22:36 56.04676 -3.28093 3393 ft 255 kts 329°
2026-04-25 22:37 56.06053 -3.30149 4111 ft 260 kts 307°
2026-04-25 22:37 56.06931 -3.32949 5017 ft 259 kts 287°
2026-04-25 22:37 56.07405 -3.36071 5741 ft 263 kts 283°
2026-04-25 22:37 56.07868 -3.39272 5996 ft 267 kts 283°
2026-04-25 22:38 56.08333 -3.42494 6773 ft 269 kts 283°
2026-04-25 22:38 56.08805 -3.45765 7556 ft 272 kts 283°
2026-04-25 22:38 56.09285 -3.49070 8342 ft 275 kts 283°
2026-04-25 22:38 56.09772 -3.52403 9122 ft 279 kts 283°
2026-04-25 22:39 56.10524 -3.55633 9845 ft 285 kts 298°
2026-04-25 22:39 56.11540 -3.58722 10528 ft 292 kts 298°
2026-04-25 22:39 56.12604 -3.61986 10712 ft 315 kts 298°
2026-04-25 22:39 56.13780 -3.65449 10955 ft 334 kts 305°
2026-04-25 22:40 56.15578 -3.68158 11474 ft 346 kts 333°
2026-04-25 22:40 56.17935 -3.69126 12081 ft 354 kts
2026-04-25 22:40 56.20328 -3.68090 12687 ft 359 kts 26°
2026-04-25 22:40 56.22487 -3.65796 13307 ft 363 kts 34°
2026-04-25 22:41 56.24539 -3.63118 13944 ft 366 kts 38°
2026-04-25 22:41 56.26547 -3.60273 14515 ft 369 kts 39°
2026-04-25 22:41 56.28570 -3.57388 15056 ft 373 kts 38°
2026-04-25 22:41 56.30629 -3.54525 15597 ft 376 kts 37°
2026-04-25 22:42 56.32733 -3.51694 16136 ft 379 kts 36°
2026-04-25 22:42 56.34873 -3.48893 16677 ft 381 kts 35°
2026-04-25 22:42 56.37044 -3.46101 17217 ft 384 kts 34°
2026-04-25 22:42 56.39203 -3.43339 17777 ft 387 kts 34°
2026-04-25 22:43 56.41431 -3.40480 18345 ft 389 kts 34°
2026-04-25 22:43 56.43611 -3.37667 18867 ft 392 kts 34°
2026-04-25 22:43 56.45841 -3.34808 19341 ft 394 kts 33°
2026-04-25 22:43 56.48104 -3.31981 19832 ft 397 kts 33°
2026-04-25 22:44 56.50397 -3.29167 20317 ft 399 kts 32°
2026-04-25 22:44 56.52708 -3.26346 20793 ft 402 kts 32°
2026-04-25 22:44 56.55030 -3.23499 21245 ft 405 kts 33°
2026-04-25 22:44 56.57365 -3.20615 21696 ft 407 kts 33°
2026-04-25 22:45 56.59713 -3.17704 22125 ft 410 kts 33°
2026-04-25 22:45 56.62070 -3.14763 22557 ft 413 kts 33°
2026-04-25 22:45 56.64412 -3.11714 22982 ft 416 kts 38°
2026-04-25 22:45 56.66463 -3.07971 23402 ft 421 kts 50°
2026-04-25 22:46 56.68075 -3.03517 23818 ft 424 kts 62°
2026-04-25 22:46 56.69190 -2.98535 24170 ft 427 kts 74°
2026-04-25 22:46 56.69759 -2.93148 24519 ft 429 kts 86°
2026-04-25 22:46 56.69935 -2.87717 24891 ft 430 kts 88°
2026-04-25 22:47 56.70086 -2.82280 25314 ft 430 kts 88°
2026-04-25 22:47 56.70229 -2.76836 25682 ft 432 kts 89°
2026-04-25 22:47 56.70369 -2.71358 26037 ft 434 kts 89°
2026-04-25 22:47 56.70510 -2.65867 26379 ft 436 kts 89°
2026-04-25 22:48 56.70650 -2.60345 26715 ft 438 kts 89°
2026-04-25 22:48 56.70789 -2.54798 27049 ft 440 kts 89°
2026-04-25 22:48 56.70926 -2.49223 27379 ft 442 kts 89°
2026-04-25 22:48 56.71061 -2.43627 27708 ft 444 kts 89°
2026-04-25 22:49 56.71194 -2.38001 28037 ft 446 kts 89°
2026-04-25 22:49 56.71323 -2.32339 28365 ft 448 kts 90°
2026-04-25 22:49 56.71448 -2.26738 28732 ft 449 kts 90°
2026-04-25 22:49 56.71574 -2.21050 29077 ft 451 kts 90°
2026-04-25 22:50 56.71698 -2.15341 29401 ft 453 kts 90°
2026-04-25 22:50 56.71822 -2.09607 29779 ft 453 kts 90°
2026-04-25 22:50 56.71946 -2.03865 30244 ft 452 kts 90°
2026-04-25 22:50 56.72067 -1.98146 30654 ft 451 kts 90°
2026-04-25 22:51 56.72185 -1.92438 31050 ft 450 kts 90°
2026-04-25 22:51 56.72299 -1.86753 31457 ft 449 kts 90°
2026-04-25 22:51 56.72406 -1.81079 31860 ft 448 kts 91°
2026-04-25 22:51 56.72510 -1.75426 32269 ft 446 kts 91°
2026-04-25 22:52 56.72611 -1.69777 32632 ft 446 kts 90°
2026-04-25 22:52 56.72709 -1.64126 32993 ft 446 kts 90°
2026-04-25 22:52 56.72806 -1.58484 33382 ft 446 kts 91°
2026-04-25 22:52 56.72869 -1.54675 33652 ft 445 kts 91°
2026-04-25 22:53 56.72990 -1.47221 34171 ft 444 kts 91°
2026-04-25 22:53 56.73080 -1.41602 34528 ft 443 kts 91°
2026-04-25 22:53 56.73168 -1.36009 34843 ft 442 kts 91°
2026-04-25 22:53 56.73253 -1.30422 35145 ft 441 kts 91°
2026-04-25 22:54 56.73336 -1.24839 35438 ft 441 kts 91°
2026-04-25 22:54 56.73415 -1.19259 35725 ft 440 kts 91°
2026-04-25 22:54 56.73491 -1.13690 36005 ft 439 kts 90°
2026-04-25 22:54 56.73563 -1.08128 36294 ft 438 kts 90°
2026-04-25 22:55 56.73632 -1.02594 36568 ft 438 kts 90°
2026-04-25 22:55 56.73699 -0.97044 36831 ft 437 kts 90°
2026-04-25 22:55 56.73764 -0.91518 37085 ft 437 kts 90°
2026-04-25 22:55 56.73828 -0.85982 37288 ft 437 kts 90°
2026-04-25 22:56 56.73952 -0.74820 37337 ft 444 kts 90°
2026-04-25 22:56 56.74064 -0.63538 37337 ft 446 kts 90°
2026-04-25 22:57 56.74170 -0.52238 37337 ft 446 kts 90°
2026-04-25 22:57 56.74267 -0.40923 37339 ft 447 kts 90°
2026-04-25 22:58 56.74345 -0.29614 37343 ft 447 kts 91°
2026-04-25 22:58 56.74402 -0.18287 37350 ft 447 kts 91°
2026-04-25 22:59 56.74462 -0.06945 37355 ft 448 kts 91°
2026-04-25 22:59 56.74516 0.04405 37349 ft 448 kts 91°
2026-04-25 23:00 56.74552 0.15749 37361 ft 448 kts 91°
2026-04-25 23:00 56.74577 0.27094 37365 ft 448 kts 91°
2026-04-25 23:01 56.74589 0.38452 37366 ft 448 kts 91°
2026-04-25 23:01 56.74602 0.49803 37355 ft 448 kts 91°
2026-04-25 23:02 56.74606 0.59235 37354 ft 448 kts 91°
2026-04-25 23:02 56.74599 0.70592 37356 ft 449 kts 91°
2026-04-25 23:03 56.74580 0.81977 37357 ft 449 kts 91°
2026-04-25 23:03 56.74546 0.93367 37358 ft 450 kts 91°
2026-04-25 23:04 56.74502 1.04768 37359 ft 450 kts 91°
2026-04-25 23:04 56.74458 1.16181 37351 ft 450 kts 91°
2026-04-25 23:05 56.74396 1.27596 37351 ft 451 kts 91°
2026-04-25 23:05 56.74314 1.39019 37353 ft 451 kts 91°
2026-04-25 23:06 56.74226 1.50452 37359 ft 451 kts 91°
2026-04-25 23:06 56.74137 1.61892 37359 ft 452 kts 91°
2026-04-25 23:07 56.74040 1.73331 37351 ft 452 kts 91°
2026-04-25 23:07 56.73927 1.84774 37350 ft 452 kts 91°
2026-04-25 23:08 56.73798 1.96229 37357 ft 452 kts 91°
2026-04-25 23:08 56.73665 2.07683 37348 ft 453 kts 91°
2026-04-25 23:09 56.73512 2.19153 37340 ft 453 kts 91°
2026-04-25 23:09 56.73361 2.30618 37340 ft 453 kts 91°
2026-04-25 23:10 56.73192 2.42089 37335 ft 453 kts 90°
2026-04-25 23:10 56.73021 2.53580 37329 ft 454 kts 91°
2026-04-25 23:11 56.72833 2.65071 37316 ft 454 kts 91°
2026-04-25 23:11 56.72625 2.76577 37316 ft 454 kts 91°
2026-04-25 23:12 56.72414 2.88081 37311 ft 455 kts 91°
2026-04-25 23:12 56.72196 2.99589 37314 ft 455 kts 90°
2026-04-25 23:13 56.71964 3.11123 37314 ft 456 kts 90°
2026-04-25 23:13 56.71726 3.22672 37312 ft 457 kts 91°
2026-04-25 23:14 56.71474 3.34228 37313 ft 457 kts 91°
2026-04-25 23:14 56.71205 3.45801 37312 ft 458 kts 91°
2026-04-25 23:15 56.70929 3.57379 37316 ft 458 kts 90°
2026-04-25 23:15 56.70634 3.68983 37309 ft 459 kts 90°
2026-04-25 23:16 56.69627 3.80455 37313 ft 461 kts 101°
2026-04-25 23:16 56.68169 3.91824 37312 ft 462 kts 101°
2026-04-25 23:17 56.66697 4.03192 37321 ft 462 kts 102°
2026-04-25 23:17 56.65221 4.14568 37330 ft 463 kts 101°
2026-04-25 23:18 56.63729 4.25955 37321 ft 464 kts 101°
2026-04-25 23:18 56.62224 4.37352 37318 ft 464 kts 101°
2026-04-25 23:19 56.60716 4.48675 37310 ft 465 kts 101°
2026-04-25 23:19 56.59175 4.60155 37311 ft 465 kts 101°
2026-04-25 23:20 56.57646 4.71478 37323 ft 466 kts 101°
2026-04-25 23:20 56.56094 4.82894 37312 ft 467 kts 101°
2026-04-25 23:21 56.54526 4.94313 37300 ft 467 kts 101°
2026-04-25 23:21 56.52662 5.05618 37298 ft 470 kts 107°
2026-04-25 23:22 56.50505 5.16789 37291 ft 470 kts 107°
2026-04-25 23:23 56.47245 5.33527 37286 ft 470 kts 107°
2026-04-25 23:23 56.45055 5.44681 37271 ft 470 kts 107°
2026-04-25 23:24 56.42863 5.55810 37293 ft 470 kts 107°
2026-04-25 23:24 56.40669 5.66914 37296 ft 469 kts 107°
2026-04-25 23:25 56.38462 5.77986 37303 ft 469 kts 107°
2026-04-25 23:25 56.36243 5.89064 37290 ft 470 kts 108°
2026-04-25 23:26 56.34012 6.00147 37281 ft 470 kts 108°
2026-04-25 23:26 56.31760 6.11215 37280 ft 471 kts 108°
2026-04-25 23:26 56.30628 6.16749 37153 ft 471 kts 108°
2026-04-25 23:27 56.29496 6.22288 36871 ft 471 kts 108°
2026-04-25 23:27 56.28366 6.27816 36602 ft 470 kts 108°
2026-04-25 23:27 56.27234 6.33337 36024 ft 472 kts 107°
2026-04-25 23:27 56.26090 6.38905 35268 ft 476 kts 107°
2026-04-25 23:28 56.24939 6.44487 34774 ft 474 kts 107°
2026-04-25 23:28 56.23794 6.50036 34248 ft 473 kts 107°
2026-04-25 23:28 56.22645 6.55576 33679 ft 472 kts 107°
2026-04-25 23:28 56.21493 6.61082 33163 ft 469 kts 107°
2026-04-25 23:29 56.20343 6.66553 32621 ft 467 kts 107°
2026-04-25 23:29 56.19199 6.72003 32102 ft 465 kts 107°
2026-04-25 23:29 56.18059 6.77424 31564 ft 463 kts 107°
2026-04-25 23:29 56.16924 6.82822 31048 ft 461 kts 108°
2026-04-25 23:30 56.15792 6.88191 30528 ft 460 kts 107°
2026-04-25 23:30 56.14660 6.93548 29948 ft 459 kts 107°
2026-04-25 23:30 56.13531 6.98879 29445 ft 455 kts 107°
2026-04-25 23:30 56.12408 7.04167 28945 ft 452 kts 107°
2026-04-25 23:31 56.11292 7.09407 28457 ft 448 kts 107°
2026-04-25 23:31 56.10179 7.14605 27976 ft 445 kts 107°
2026-04-25 23:31 56.09073 7.19758 27499 ft 442 kts 107°
2026-04-25 23:31 56.07971 7.24874 27056 ft 438 kts 107°
2026-04-25 23:32 56.06882 7.29918 26835 ft 429 kts 107°
2026-04-25 23:32 56.05820 7.34829 26739 ft 418 kts 107°
2026-04-25 23:32 56.04781 7.39613 26666 ft 407 kts 107°
2026-04-25 23:32 56.03771 7.44264 26572 ft 396 kts 105°
2026-04-25 23:33 56.02774 7.48866 26484 ft 399 kts 105°
2026-04-25 23:33 56.01769 7.53508 26194 ft 400 kts 105°
2026-04-25 23:33 56.00761 7.58132 25767 ft 399 kts 106°
2026-04-25 23:33 55.99750 7.62750 25351 ft 398 kts 106°
2026-04-25 23:34 55.98739 7.67356 24921 ft 398 kts 106°
2026-04-25 23:34 55.97726 7.71959 24485 ft 398 kts 105°
2026-04-25 23:34 55.96745 7.76573 24044 ft 397 kts 101°
2026-04-25 23:34 55.96009 7.81358 23577 ft 402 kts 97°
2026-04-25 23:35 55.95389 7.86224 23057 ft 401 kts 96°
2026-04-25 23:35 55.94848 7.91080 22546 ft 398 kts 93°
2026-04-25 23:35 55.94370 7.95943 22087 ft 397 kts 92°
2026-04-25 23:35 55.93877 8.00717 21601 ft 397 kts 93°
2026-04-25 23:36 55.93371 8.05544 21117 ft 396 kts 93°
2026-04-25 23:36 55.93030 8.08802 20794 ft 395 kts 93°
2026-04-25 23:36 55.92354 8.15230 20164 ft 394 kts 93°
2026-04-25 23:36 55.91850 8.20020 19698 ft 393 kts 93°
2026-04-25 23:37 55.91345 8.24793 19241 ft 391 kts 93°
2026-04-25 23:37 55.90841 8.29556 18792 ft 390 kts 93°
2026-04-25 23:37 55.90336 8.34297 18330 ft 389 kts 93°
2026-04-25 23:37 55.89833 8.39026 17816 ft 388 kts 93°
2026-04-25 23:38 55.89333 8.43737 17312 ft 386 kts 93°
2026-04-25 23:38 55.88840 8.48425 16819 ft 384 kts 93°
2026-04-25 23:38 55.88340 8.53099 16365 ft 383 kts 93°
2026-04-25 23:38 55.87830 8.57753 15891 ft 382 kts 93°
2026-04-25 23:39 55.87325 8.62373 15420 ft 380 kts 93°
2026-04-25 23:39 55.86823 8.66987 14956 ft 379 kts 93°
2026-04-25 23:39 55.86332 8.71523 14504 ft 377 kts 93°
2026-04-25 23:39 55.85833 8.76160 14047 ft 376 kts 93°
2026-04-25 23:40 55.85476 8.80714 13545 ft 369 kts 88°
2026-04-25 23:40 55.85237 8.85254 13039 ft 367 kts 87°
2026-04-25 23:40 55.85017 8.89708 12549 ft 365 kts 87°
2026-04-25 23:40 55.84802 8.94192 12066 ft 363 kts 87°
2026-04-25 23:41 55.84593 8.98711 11577 ft 361 kts 87°
2026-04-25 23:41 55.84423 9.03079 11111 ft 357 kts 85°
2026-04-25 23:41 55.84340 9.07467 10673 ft 353 kts 83°
2026-04-25 23:41 55.84314 9.11821 10211 ft 350 kts 83°
2026-04-25 23:42 55.84314 9.16134 9705 ft 347 kts 83°
2026-04-25 23:42 55.84311 9.20394 9188 ft 339 kts 83°
2026-04-25 23:42 55.84296 9.24560 8679 ft 325 kts 84°
2026-04-25 23:42 55.84266 9.28462 8280 ft 309 kts 84°
2026-04-25 23:43 55.84234 9.32174 7791 ft 300 kts 85°
2026-04-25 23:43 55.84198 9.35835 7306 ft 292 kts 85°
2026-04-25 23:43 55.84163 9.39399 6822 ft 285 kts 86°
2026-04-25 23:43 55.84130 9.42924 6325 ft 278 kts 86°
2026-04-25 23:44 55.84109 9.45182 5990 ft 274 kts 86°
2026-04-25 23:44 55.84076 9.48539 5481 ft 269 kts 86°
2026-04-25 23:44 55.84047 9.51857 4898 ft 267 kts 86°
2026-04-25 23:44 55.84020 9.55141 4361 ft 263 kts 86°
2026-04-25 23:45 55.83917 9.58360 3858 ft 261 kts 98°
2026-04-25 23:45 55.83200 9.61314 3372 ft 264 kts 123°
2026-04-25 23:45 55.81827 9.63440 3022 ft 261 kts 150°
2026-04-25 23:45 55.80156 9.64307 2984 ft 243 kts 175°
2026-04-25 23:46 55.78499 9.64018 2990 ft 240 kts 198°
2026-04-25 23:46 55.77052 9.62748 2996 ft 225 kts 220°
2026-04-25 23:46 55.75998 9.60802 2990 ft 215 kts 242°
2026-04-25 23:46 55.75384 9.58452 2992 ft 207 kts 261°
2026-04-25 23:47 55.75208 9.55954 2994 ft 204 kts 272°
2026-04-25 23:47 55.75141 9.53435 2996 ft 204 kts 272°
2026-04-25 23:47 55.75073 9.50918 2998 ft 204 kts 272°
2026-04-25 23:47 55.75003 9.48471 3016 ft 189 kts 273°
2026-04-25 23:48 55.74938 9.46249 2990 ft 171 kts 274°
2026-04-25 23:48 55.74881 9.44198 2993 ft 163 kts 274°
2026-04-25 23:48 55.74827 9.42209 2959 ft 161 kts 274°
2026-04-25 23:48 55.74771 9.40234 2800 ft 159 kts 274°
2026-04-25 23:49 55.74716 9.38282 2618 ft 157 kts 274°
2026-04-25 23:49 55.74660 9.36348 2407 ft 156 kts 274°
2026-04-25 23:49 55.74605 9.34428 2190 ft 155 kts 273°
2026-04-25 23:49 55.74550 9.32524 1976 ft 154 kts 273°
2026-04-25 23:50 55.74494 9.30627 1767 ft 153 kts 273°
2026-04-25 23:50 55.74439 9.28752 1538 ft 152 kts 272°
2026-04-25 23:50 55.74383 9.26892 1333 ft 151 kts 272°
2026-04-25 23:50 55.74327 9.25043 1095 ft 149 kts 270°
2026-04-25 23:51 55.74271 9.23230 845 ft 146 kts 269°
2026-04-25 23:51 55.74219 9.21454 648 ft 144 kts 269°
2026-04-25 23:51 55.74177 9.19682 459 ft 143 kts 267°
2026-04-25 23:51 55.74117 9.17921 297 ft 142 kts 269°
2026-04-25 23:52 55.74070 9.16210 219 ft 129 kts 267°
2026-04-25 23:52 55.74033 9.15076 221 ft 49 kts 267°
2026-04-25 23:52 55.74021 9.14667 216 ft 27 kts 267°
2026-04-25 23:52 55.74030 9.14509 224 ft 10 kts 320°
2026-04-25 23:53 55.74104 9.14494 216 ft 10 kts 358°
2026-04-25 23:53 55.74136 9.14491 216 ft 5 kts 356°
2026-04-25 23:53 55.74181 9.14486 216 ft 8 kts 356°
2026-04-25 23:53 55.74243 9.14479 216 ft 8 kts 356°
2026-04-25 23:54 55.74311 9.14473 225 ft 11 kts 357°
2026-04-25 23:54 55.74381 9.14467 223 ft 10 kts 357°
2026-04-25 23:54 55.74427 9.14481 223 ft 7 kts 38°
2026-04-25 23:54 55.74441 9.14560 216 ft 7 kts 85°
2026-04-25 23:55 55.74453 9.14620 221 ft 5 kts 33°
2026-04-25 23:55 55.74486 9.14622 216 ft 3 kts 356°
2026-04-25 23:55 55.74515 9.14619 219 ft 2 kts 357°
2026-04-25 23:55 55.74527 9.14618 219 ft 0 kts 358°